Weather History for KWRL - January, 2012

Change the Weather History Date:

Sunday, January 29, 2012

  Actual Average Record
Temperature  
Mean Temperature 27 °F 18 °F  
Max Temperature 37 °F 32 °F 52 °F (1988)
Min Temperature 17 °F 5 °F -31 °F (1980)
Degree Days  
Heating Degree Days 38 46  
Month to date heating degree days 1149 1393  
Since 1 July heating degree days 4136 4756  
Cooling Degree Days 0 0  
Month to date cooling degree days 0 0  
Year to date cooling degree days 0 0  
Moisture  
Dew Point 16 °F    
Average Humidity 64    
Maximum Humidity 81    
Minimum Humidity 47    
Precipitation  
Precipitation 0.00 in 0.01 in 0.12 in (2009)
Month to date precipitation 0.03 0.22  
Year to date precipitation 0.03 0.22  
Sea Level Pressure  
Sea Level Pressure 30.13 in    
Wind  
Wind Speed 3 mph (South)    
Max Wind Speed 8 mph    
Max Gust Speed 15 mph    
Visibility 10 miles    
Events      
T = Trace of Precipitation, MM = Missing Value Source: NWS Daily Summary

Daily Weather History Graph

Daily Weather History Graph

Search for Another Location

Airport or City:

Trip Planner

Search our weather history database for the weather conditions in past years. The results will help you decide how hot, cold, wet, or windy it might be!

Date:

Astronomy

Jan. 29, 2012 Rise Set
Actual Time 7:32 AM MST 5:17 PM MST
Civil Twilight 7:01 AM MST 5:48 PM MST
Nautical Twilight 6:27 AM MST 6:23 PM MST
Astronomical Twilight 5:53 AM MST 6:57 PM MST
Moon 10:09 AM MST (1/29) No Moon Set
Length of Visible Light 10h 46m
Length of Day
9h 44m
Waxing Crescent, 37% of the Moon is Illuminated
Jan 29
Waxing Crescent
Jan 30
First Quarter
Feb 7
Full
Feb 14
Last Quarter
Feb 21
New

Hourly Weather History & Observations

Time (MST) Temp. Windchill Dew Point Humidity Pressure Visibility Wind Dir Wind Speed Gust Speed Precip Events Conditions
12:53 AM 19.9 °F 12.1 °F 12.0 °F 71% 30.27 in 10.0 mi South 5.8 mph - N/A   Clear
1:53 AM 19.0 °F 10.0 °F 10.9 °F 71% 30.25 in 10.0 mi SSW 6.9 mph - N/A   Clear
2:53 AM 19.0 °F 9.0 °F 12.0 °F 74% 30.26 in 10.0 mi South 8.1 mph - N/A   Partly Cloudy
3:53 AM 21.0 °F 16.2 °F 12.9 °F 71% 30.25 in 10.0 mi South 3.5 mph - N/A   Overcast
4:53 AM 19.9 °F - 12.0 °F 71% 30.25 in 10.0 mi Calm Calm - N/A   Partly Cloudy
5:53 AM 17.1 °F 10.0 °F 12.0 °F 81% 30.27 in 10.0 mi SW 4.6 mph - N/A   Clear
6:53 AM 19.0 °F 12.3 °F 10.9 °F 71% 30.27 in 10.0 mi South 4.6 mph - N/A   Clear
7:53 AM 19.9 °F - 12.0 °F 71% 30.26 in 10.0 mi Calm Calm - N/A   Clear
8:53 AM 21.9 °F - 15.1 °F 75% 30.26 in 10.0 mi Calm Calm - N/A   Clear
10:53 AM 24.1 °F - 15.1 °F 69% 30.24 in 10.0 mi Calm Calm - N/A   Clear
11:53 AM 26.6 °F 22.6 °F 15.8 °F 64% 30.08 in 10.0 mi SSW 3.5 mph - N/A   Clear
12:53 PM 30.9 °F - 16.0 °F 54% 30.15 in 10.0 mi Calm Calm - N/A   Clear
1:53 PM 30.9 °F - 17.1 °F 57% 30.12 in 10.0 mi Calm Calm - N/A   Clear
2:53 PM 36.0 °F 33.3 °F 18.0 °F 48% 30.08 in 10.0 mi NNE 3.5 mph - N/A   Clear
3:53 PM 37.0 °F - 19.0 °F 48% 30.06 in 10.0 mi Calm Calm - N/A   Clear
4:53 PM 32.0 °F 27.5 °F 19.9 °F 61% 30.06 in 10.0 mi SSE 4.6 mph - N/A   Clear
5:53 PM 30.9 °F 25.2 °F 21.0 °F 67% 30.06 in 10.0 mi South 5.8 mph - N/A   Clear
6:53 PM 32.0 °F 28.7 °F 21.0 °F 64% 30.03 in 10.0 mi Variable 3.5 mph - N/A   Clear
7:53 PM 30.0 °F 23.2 °F 21.0 °F 69% 30.03 in 10.0 mi East 6.9 mph - N/A   Clear
8:53 PM 26.6 °F - 19.4 °F 74% 29.89 in 10.0 mi Calm Calm - N/A   Clear
9:53 PM 24.1 °F 19.7 °F 19.0 °F 81% 30.00 in 10.0 mi SSE 3.5 mph - N/A   Clear
10:53 PM 25.0 °F 18.1 °F 19.0 °F 78% 29.99 in 10.0 mi SSW 5.8 mph - N/A   Clear
11:53 PM 27.0 °F 21.6 °F 19.0 °F 72% 29.96 in 10.0 mi WNW 4.6 mph - N/A   Clear